Location: Arena
(42.5007°N, 9.4650°E)
Time: 22:18:45
(UTC+00:00)

SL-16 R/B - Pass Details

Date: 09 April 2020
Orbit: 842 x 846 km, 71.0° (Epoch: 05 June)

Event Time Altitude Azimuth Distance (km) Brightness Sun altitude
Rises 23:14:34 0° 331° (NNW) 3,412 6.1 -39.4°
Reaches altitude 10° 23:17:03 10° 327° (NNW) 2,474 5.2 -39.4°
Enters shadow 23:18:44 20° 322° (NW) 1,873 4.4 -39.5°
